Temp
-11 -12 -12 -12 -12 -12 -12 -12 -12 -13 -13 -12 -12 -12 -13 -13 -13 -13 -13 -13 -13 -13 -13 -14 -14 -14 -14 -15 -14 -15 -15 -15 -15 -15 -15 -15 -16 -16 -16 -17 -17 -18 -19 -21
-12 -12 -12 -12 -12 -12 -12 -12 -12 -12 -12 -12 -12 -12 -12 -13 -13 -13 -13 -13 -13 -13 -13 -14 -14 -14 -14 -14 -15 -15 -15 -15 -15 -16 -16 -16 -17 -17 -17 -17 -17 -18 -20 -22
-12 -12 -12 -12 -12 -12 -12 -12 -12 -12 -12 -11 -12 -11 -12 -13 -13 -13 -13 -13 -13 -13 -13 -14 -14 -14 -14 -15 -15 -15 -15 -15 -16 -16 -16 -17 -17 -17 -17 -18 -19 -20 -20 -22
-11 -11 -12 -12 -12 -12 -12 -12 -12 -11 -12 -11 -11 -10 -12 -13 -13 -13 -13 -12 -13 -13 -13 -13 -14 -14 -15 -15 -15 -15 -15 -16 -15 -16 -16 -17 -17 -18 -18 -18 -19 -20 -21 -23
-12 -12 -12 -12 -12 -12 -12 -12 -12 -12 -11 -11 -11 -11 -11 -12 -12 -12 -13 -13 -13 -13 -13 -14 -14 -14 -14 -15 -15 -15 -16 -16 -16 -16 -17 -17 -18 -18 -19 -19 -20 -21 -23 -24
-12 -12 -12 -12 -12 -12 -12 -12 -12 -12 -11 -11 -12 -11 -11 -11 -12 -12 -13 -12 -13 -13 -13 -13 -13 -14 -14 -15 -15 -15 -16 -16 -16 -16 -17 -17 -18 -19 -19 -19 -21 -22 -23 -24
-12 -12 -13 -13 -12 -12 -12 -12 -12 -11 -11 -12 -12 -11 -11 -12 -12 -12 -12 -12 -13 -13 -13 -13 -13 -13 -14 -14 -15 -15 -15 -16 -16 -17 -17 -17 -18 -19 -19 -19 -21 -22 -23 -24
-12 -12 -13 -13 -13 -12 -13 -12 -12 -12 -12 -11 -11 -11 -11 -12 -12 -12 -12 -12 -12 -12 -13 -13 -13 -13 -14 -14 -15 -15 -15 -16 -16 -16 -17 -18 -19 -20 -19 -19 -21 -22 -23 -24
-13 -12 -13 -13 -13 -13 -13 -12 -13 -12 -11 -11 -11 -11 -11 -12 -12 -12 -12 -12 -12 -12 -12 -13 -13 -14 -14 -14 -14 -15 -15 -16 -16 -16 -17 -18 -19 -20 -20 -20 -21 -22 -23 -24
-13 -13 -13 -12 -13 -13 -13 -13 -13 -13 -11 -11 -10 -11 -12 -13 -13 -13 -12 -12 -12 -12 -13 -13 -14 -14 -14 -14 -15 -15 -16 -16 -16 -16 -17 -18 -19 -20 -20 -20 -22 -23 -23 -24
-13 -14 -13 -13 -13 -13 -13 -14 -14 -13 -12 -11 -11 -11 -12 -13 -13 -13 -13 -12 -12 -12 -13 -13 -14 -14 -14 -15 -15 -15 -16 -16 -16 -16 -17 -18 -19 -20 -20 -20 -22 -23 -24 -24
-14 -13 -13 -14 -13 -14 -13 -13 -13 -13 -13 -12 -11 -9 -12 -14 -13 -14 -13 -13 -13 -12 -13 -14 -14 -15 -15 -15 -15 -16 -16 -16 -16 -17 -18 -19 -20 -20 -20 -21 -22 -23 -24 -25
-14 -13 -13 -13 -13 -13 -13 -13 -14 -14 -13 -11 -12 -10 -13 -14 -14 -14 -14 -13 -13 -13 -13 -14 -14 -14 -15 -15 -15 -16 -16 -16 -16 -17 -18 -19 -20 -21 -21 -21 -22 -23 -24 -25
-14 -14 -13 -13 -14 -15 -14 -13 -13 -13 -11 -12 -11 -12 -13 -14 -15 -15 -15 -13 -14 -13 -13 -14 -14 -14 -15 -15 -16 -16 -16 -16 -17 -17 -18 -19 -21 -21 -21 -21 -22 -23 -24 -25
-16 -14 -14 -14 -14 -13 -13 -13 -13 -12 -12 -11 -11 -11 -13 -16 -16 -16 -15 -15 -14 -13 -14 -14 -15 -14 -15 -15 -16 -16 -16 -16 -17 -17 -18 -19 -21 -21 -21 -21 -22 -23 -24 -25
-16 -16 -15 -14 -14 -14 -14 -13 -13 -13 -12 -12 -12 -11 -14 -16 -15 -15 -16 -15 -14 -14 -15 -14 -15 -15 -15 -15 -16 -16 -17 -17 -17 -17 -18 -20 -21 -21 -22 -22 -22 -23 -24 -25
-17 -17 -16 -15 -16 -16 -12 -11 -13 -13 -13 -14 -12 -13 -15 -15 -15 -15 -15 -15 -14 -14 -15 -14 -15 -15 -15 -16 -16 -16 -17 -17 -17 -17 -19 -20 -21 -22 -22 -22 -22 -23 -24 -25
-17 -17 -18 -16 -17 -16 -11 -12 -12 -12 -13 -14 -14 -14 -15 -15 -15 -15 -15 -14 -14 -15 -14 -14 -15 -16 -16 -15 -16 -16 -17 -17 -17 -18 -19 -20 -21 -22 -22 -22 -22 -23 -24 -25
-16 -17 -17 -18 -17 -15 -11 -11 -12 -14 -13 -14 -14 -15 -16 -16 -15 -14 -15 -15 -14 -15 -15 -15 -15 -15 -15 -16 -16 -17 -17 -17 -17 -18 -19 -20 -21 -22 -22 -22 -23 -24 -24 -25
-17 -17 -17 -17 -17 -15 -11 -14 -15 -14 -10 -15 -16 -16 -16 -16 -14 -15 -15 -15 -15 -15 -15 -15 -15 -16 -16 -16 -16 -17 -17 -17 -17 -18 -19 -20 -21 -22 -22 -22 -23 -24 -24 -25
-17 -17 -17 -17 -17 -15 -13 -14 -15 -14 -14 -16 -17 -16 -16 -16 -15 -15 -16 -15 -15 -15 -15 -15 -15 -15 -16 -16 -16 -17 -17 -17 -17 -18 -19 -20 -21 -22 -22 -22 -23 -23 -24 -25
-17 -18 -17 -18 -18 -15 -14 -15 -15 -16 -17 -17 -17 -17 -17 -16 -16 -16 -15 -15 -15 -15 -15 -15 -16 -16 -16 -16 -16 -17 -17 -17 -17 -18 -19 -20 -21 -22 -22 -22 -23 -24 -24 -25
-18 -17 -17 -18 -17 -17 -16 -15 -16 -16 -16 -17 -18 -17 -17 -17 -17 -16 -16 -16 -15 -15 -16 -16 -16 -16 -17 -17 -17 -17 -17 -17 -18 -18 -19 -20 -21 -21 -22 -22 -23 -24 -24 -25
-18 -18 -18 -19 -16 -16 -17 -17 -16 -17 -17 -18 -17 -17 -17 -17 -17 -17 -17 -16 -16 -16 -16 -17 -17 -17 -17 -17 -18 -17 -17 -18 -18 -19 -20 -21 -21 -22 -22 -22 -23 -24 -24 -25
-18 -19 -18 -18 -16 -17 -16 -17 -18 -18 -18 -18 -18 -18 -17 -17 -17 -16 -16 -16 -16 -17 -17 -17 -17 -17 -17 -17 -18 -18 -18 -18 -18 -19 -21 -21 -22 -22 -22 -22 -23 -24 -24 -25
-18 -18 -19 -17 -18 -18 -18 -18 -18 -18 -18 -18 -18 -18 -18 -18 -17 -17 -17 -16 -17 -17 -17 -17 -17 -17 -18 -18 -18 -18 -18 -18 -19 -20 -21 -21 -22 -22 -22 -22 -23 -24 -24 -25
Height
5780 5781 5781 5780 5780 5779 5779 5778 5776 5774 5772 5771 5771 5774 5769 5768 5768 5764 5762 5760 5759 5756 5755 5754 5752 5749 5746 5743 5739 5733 5728 5722 5717 5709 5701 5692 5683 5673 5664 5652 5640 5626 5610 5593
5775 5776 5775 5775 5775 5775 5774 5772 5770 5768 5766 5764 5765 5768 5764 5760 5762 5758 5754 5753 5751 5751 5749 5748 5745 5742 5740 5736 5732 5727 5721 5716 5709 5701 5693 5684 5675 5665 5657 5647 5634 5621 5603 5586
5767 5770 5769 5769 5770 5769 5768 5766 5764 5762 5760 5759 5758 5763 5758 5755 5753 5751 5749 5746 5746 5744 5742 5741 5739 5736 5733 5729 5725 5721 5716 5709 5703 5695 5687 5678 5669 5659 5648 5636 5624 5612 5598 5583
5761 5763 5763 5763 5763 5762 5763 5761 5759 5756 5754 5754 5754 5757 5755 5749 5745 5742 5740 5741 5742 5739 5736 5735 5732 5730 5727 5724 5720 5715 5709 5704 5697 5689 5680 5671 5662 5652 5642 5633 5622 5608 5593 5577
5757 5757 5756 5757 5757 5756 5757 5755 5752 5750 5748 5750 5751 5751 5752 5743 5737 5734 5734 5735 5734 5732 5730 5729 5726 5724 5722 5718 5713 5709 5703 5697 5690 5683 5674 5666 5657 5647 5636 5627 5615 5601 5586 5573
5748 5751 5751 5751 5750 5749 5750 5748 5745 5744 5741 5743 5747 5746 5748 5739 5735 5731 5729 5730 5728 5726 5725 5723 5721 5718 5715 5712 5707 5702 5696 5690 5685 5677 5668 5660 5651 5641 5631 5622 5610 5598 5585 5571
5743 5742 5744 5744 5743 5743 5743 5742 5739 5737 5736 5735 5739 5741 5741 5733 5729 5726 5725 5724 5722 5721 5721 5719 5716 5712 5709 5706 5700 5695 5690 5685 5678 5671 5662 5654 5646 5637 5629 5619 5608 5597 5583 5568
5733 5734 5736 5737 5737 5736 5734 5735 5735 5727 5728 5728 5732 5736 5734 5730 5726 5722 5719 5717 5717 5716 5714 5712 5709 5707 5703 5698 5693 5688 5684 5678 5672 5665 5658 5649 5641 5632 5624 5614 5604 5592 5579 5565
5724 5723 5727 5727 5728 5728 5729 5728 5728 5723 5719 5718 5724 5729 5729 5723 5721 5717 5713 5712 5713 5710 5708 5707 5704 5699 5695 5691 5686 5682 5678 5672 5667 5660 5652 5644 5636 5628 5619 5610 5600 5588 5575 5561
5711 5713 5715 5717 5719 5720 5719 5722 5720 5718 5710 5709 5713 5719 5721 5716 5716 5710 5708 5705 5704 5703 5700 5698 5696 5692 5689 5685 5680 5676 5673 5667 5660 5654 5646 5639 5632 5623 5615 5606 5595 5585 5572 5559
5703 5706 5705 5707 5708 5711 5712 5710 5712 5711 5705 5703 5702 5708 5716 5711 5709 5705 5701 5700 5699 5697 5694 5692 5689 5686 5683 5679 5674 5670 5667 5660 5654 5647 5640 5634 5627 5619 5611 5602 5593 5581 5569 5557
5693 5692 5691 5695 5696 5698 5699 5703 5705 5702 5700 5694 5692 5697 5709 5704 5703 5698 5694 5692 5694 5692 5689 5686 5682 5679 5676 5672 5668 5664 5659 5654 5648 5641 5635 5629 5623 5615 5607 5598 5589 5578 5567 5555
5678 5678 5680 5681 5683 5687 5690 5696 5696 5692 5688 5681 5685 5691 5701 5699 5696 5690 5684 5682 5683 5684 5682 5680 5676 5672 5668 5665 5661 5657 5653 5647 5641 5635 5629 5624 5618 5611 5603 5594 5585 5576 5564 5552
5661 5665 5666 5670 5676 5679 5678 5684 5683 5682 5675 5678 5674 5682 5693 5692 5689 5683 5678 5673 5673 5675 5674 5671 5669 5666 5661 5657 5654 5650 5646 5641 5635 5629 5624 5619 5613 5607 5599 5591 5582 5572 5562 5551
5648 5653 5657 5660 5663 5664 5668 5671 5672 5667 5670 5663 5669 5671 5686 5685 5679 5675 5669 5665 5663 5664 5664 5663 5659 5657 5654 5650 5646 5643 5640 5635 5628 5623 5619 5614 5609 5603 5595 5587 5579 5569 5559 5549
5635 5639 5644 5648 5650 5651 5654 5657 5652 5654 5655 5655 5660 5658 5678 5671 5670 5669 5664 5657 5656 5655 5654 5653 5651 5649 5646 5642 5638 5636 5633 5629 5623 5617 5613 5609 5604 5598 5592 5584 5576 5567 5558 5548
5621 5625 5628 5631 5634 5635 5637 5640 5642 5644 5643 5648 5643 5655 5661 5660 5658 5655 5651 5650 5649 5644 5643 5643 5642 5640 5638 5634 5631 5628 5626 5622 5616 5612 5608 5604 5600 5594 5587 5580 5572 5564 5556 5546
5610 5613 5614 5615 5619 5616 5630 5631 5633 5631 5632 5636 5640 5639 5646 5648 5644 5643 5642 5640 5635 5632 5635 5633 5633 5631 5629 5626 5624 5621 5619 5615 5610 5606 5603 5599 5594 5589 5583 5576 5569 5560 5552 5543
5598 5601 5600 5600 5602 5609 5619 5620 5624 5623 5625 5625 5623 5632 5633 5627 5631 5635 5632 5626 5622 5626 5625 5624 5622 5622 5621 5618 5616 5614 5611 5607 5604 5600 5597 5593 5589 5585 5578 5572 5565 5557 5549 5541
5585 5588 5588 5590 5589 5592 5615 5619 5616 5610 5608 5621 5618 5618 5614 5614 5618 5620 5615 5613 5615 5615 5614 5613 5613 5612 5611 5609 5607 5605 5603 5600 5597 5593 5590 5587 5583 5579 5573 5568 5561 5554 5546 5538
5573 5575 5575 5579 5576 5588 5603 5602 5602 5600 5613 5603 5599 5601 5601 5604 5605 5604 5605 5605 5604 5604 5603 5603 5603 5601 5600 5599 5598 5597 5594 5592 5590 5586 5583 5581 5577 5572 5568 5562 5556 5550 5543 5535
5559 5562 5563 5568 5570 5576 5592 5594 5595 5598 5588 5590 5590 5589 5589 5590 5589 5590 5591 5592 5591 5591 5592 5592 5591 5591 5589 5589 5588 5586 5585 5584 5581 5579 5577 5575 5571 5566 5561 5557 5551 5545 5539 5532
5536 5548 5552 5554 5562 5579 5575 5577 5579 5583 5581 5579 5577 5578 5579 5578 5579 5579 5578 5577 5579 5580 5579 5580 5579 5579 5578 5579 5578 5577 5576 5575 5574 5571 5569 5568 5564 5560 5555 5551 5546 5541 5535 5529
5522 5527 5531 5537 5554 5561 5566 5564 5562 5566 5567 5565 5564 5565 5568 5569 5567 5566 5566 5565 5565 5566 5568 5568 5567 5568 5568 5568 5568 5567 5568 5566 5565 5563 5562 5561 5558 5554 5549 5545 5541 5536 5531 5525
5509 5507 5519 5517 5538 5545 5543 5552 5553 5550 5551 5551 5552 5552 5552 5554 5555 5554 5555 5555 5555 5556 5557 5557 5557 5557 5557 5557 5558 5558 5558 5556 5555 5554 5554 5553 5551 5547 5544 5540 5536 5531 5526 5520
5490 5496 5495 5505 5525 5524 5528 5530 5531 5533 5536 5537 5537 5538 5539 5542 5542 5542 5543 5545 5545 5547 5547 5546 5546 5547 5547 5548 5547 5548 5547 5546 5545 5545 5545 5544 5543 5541 5538 5535 5531 5526 5521 5517
Wind_Speed
26 26 26 30 30 30 32 33 33 35 35 35 34 29 33 30 25 27 29 30 30 31 28 28 30 33 37 38 40 42 43 44 46 48 52 55 54 54 57 65 73 80 85 86
25 25 27 26 25 26 27 29 31 33 34 36 34 28 29 32 26 29 32 31 32 31 31 29 31 34 36 38 40 40 41 42 45 47 52 52 51 53 59 66 73 80 83 84
25 24 24 24 26 28 29 30 31 32 33 33 34 21 24 27 28 29 31 33 31 31 32 31 32 34 36 37 38 39 41 43 45 47 52 51 51 54 60 67 74 78 83 83
27 24 25 26 27 29 30 32 32 32 32 30 29 17 16 26 29 32 34 33 30 32 32 32 33 34 35 37 37 39 40 42 46 48 52 50 51 54 58 66 72 77 80 79
29 28 29 29 29 31 31 35 33 31 32 28 25 23 8 27 32 34 34 32 32 32 31 31 33 34 35 35 34 37 40 42 46 48 51 50 51 54 58 66 73 75 75 74
35 32 31 29 30 33 31 32 36 32 32 27 23 22 11 27 29 34 36 34 33 33 31 31 33 34 35 33 33 36 39 42 45 49 50 48 50 53 58 65 69 71 72 73
36 37 35 35 32 31 30 30 35 37 35 32 22 19 13 28 32 34 34 33 33 33 32 33 32 34 33 32 34 36 38 41 45 48 49 47 48 51 57 64 67 70 71 71
43 42 39 38 35 31 31 31 33 40 38 37 24 15 20 27 33 34 35 35 35 34 34 31 32 31 30 31 33 36 38 42 47 48 48 47 48 50 55 63 66 68 69 69
44 46 41 41 38 35 31 31 30 34 40 41 31 16 16 26 30 34 35 35 35 34 35 32 29 28 29 31 32 36 37 43 49 48 49 47 47 49 54 61 65 67 68 69
44 45 41 40 41 41 36 33 34 33 42 44 37 22 17 25 28 34 34 35 34 35 32 29 29 31 30 30 33 35 37 44 48 48 48 46 46 48 53 59 63 66 67 68
46 45 46 43 43 40 41 39 37 36 42 42 42 33 19 27 28 32 36 36 35 33 32 28 31 30 30 33 34 34 39 44 46 47 46 45 44 47 51 57 60 62 66 66
47 53 54 47 48 48 45 43 40 41 42 46 46 39 17 26 27 35 39 40 37 32 31 29 30 30 33 35 35 35 40 42 45 47 44 43 43 45 50 55 59 62 64 65
53 56 57 57 55 52 49 41 44 44 48 51 48 40 21 23 25 36 41 43 40 34 33 29 32 34 35 35 34 37 39 41 46 46 43 41 41 43 48 52 57 60 62 62
61 58 59 59 54 50 54 48 48 50 54 51 52 43 26 21 24 34 42 48 45 37 34 33 37 38 35 35 37 38 39 42 45 46 43 40 40 41 46 51 55 58 60 60
61 62 60 59 60 60 58 53 54 56 54 58 52 45 26 20 32 38 46 48 48 42 39 38 40 39 38 38 40 40 41 43 45 45 42 39 38 39 43 48 53 56 59 60
53 56 58 57 57 59 59 58 62 61 60 59 55 52 28 31 32 38 44 50 45 46 42 42 42 40 41 41 43 43 42 43 46 44 41 38 37 38 42 47 52 55 57 59
45 49 53 56 58 58 59 59 61 63 63 59 60 48 39 34 31 37 46 47 47 50 46 44 44 42 42 43 44 43 41 43 45 43 39 36 35 36 39 45 50 54 56 57
44 47 51 58 58 63 60 60 58 59 61 58 56 52 41 36 41 40 44 47 51 51 46 45 43 43 44 44 43 42 39 43 44 40 38 34 34 35 37 43 49 52 54 55
48 43 46 51 56 60 59 62 58 55 56 57 57 48 43 46 45 40 42 50 54 48 47 45 47 46 44 44 44 41 40 42 40 39 36 33 33 34 36 43 46 50 53 52
47 49 48 49 51 58 53 47 51 57 57 46 40 40 37 39 37 38 44 51 51 49 50 49 47 45 44 45 45 42 40 40 38 38 35 31 31 32 35 42 44 48 51 50
52 49 51 50 52 52 47 48 44 54 43 38 40 41 46 48 45 45 44 45 47 48 48 48 45 43 43 46 46 44 39 37 37 37 34 29 29 30 34 39 42 47 49 49
62 61 60 56 53 53 45 41 44 37 42 38 36 31 34 37 43 43 45 49 51 49 47 46 45 43 44 44 44 43 39 37 36 37 32 28 27 29 32 37 40 44 47 46
75 68 66 65 58 42 44 46 43 39 40 41 40 37 33 35 36 41 46 51 51 50 50 45 44 40 39 41 42 40 38 37 36 35 31 27 26 29 32 35 38 42 46 46
76 73 71 68 59 54 47 48 51 46 44 43 43 43 41 41 39 40 41 45 47 48 45 41 39 37 37 39 38 38 39 35 36 36 29 27 26 27 30 35 36 41 44 45
81 78 76 79 72 65 62 54 50 52 50 49 46 46 44 42 44 46 45 44 43 41 41 39 36 33 35 38 36 34 33 36 37 34 27 27 25 26 30 35 36 39 42 43
87 84 82 82 68 65 63 59 59 56 54 54 54 48 48 46 47 49 48 46 41 40 38 36 35 33 33 36 38 39 39 40 38 32 27 27 25 25 29 34 37 38 40 41
Wind_Direction
265 270 275 277 282 283 287 290 290 285 282 278 279 282 285 283 284 280 282 284 288 287 293 294 296 297 299 304 311 314 316 318 320 322 325 325 327 329 329 333 334 335 337 342
263 269 273 279 282 286 289 291 296 295 288 283 282 285 282 285 282 280 279 283 282 288 290 294 296 297 301 305 309 312 313 317 318 321 325 326 327 328 329 332 333 336 340 343
256 265 271 281 287 288 287 292 296 298 295 292 290 296 282 281 281 275 276 275 281 286 291 295 298 298 301 304 308 311 313 315 318 321 325 325 325 328 332 334 337 339 340 344
254 264 268 276 283 286 289 294 294 295 296 299 296 301 282 272 273 272 268 275 282 285 290 294 295 298 301 306 310 309 310 314 318 321 324 324 327 330 333 334 336 339 343 347
254 256 264 272 278 282 289 291 289 289 294 296 299 297 249 253 262 271 277 277 278 282 287 292 295 298 300 304 306 308 309 314 317 321 324 325 327 330 333 336 338 342 346 348
258 261 263 268 273 280 287 287 287 286 288 290 297 293 249 257 264 269 274 282 284 284 287 291 295 299 301 304 306 304 307 312 317 322 323 325 327 331 334 339 340 343 347 350
262 264 265 264 269 275 280 281 288 289 288 291 292 290 265 264 268 272 279 282 281 284 291 295 300 302 306 307 305 302 306 313 318 322 323 324 326 331 336 339 339 343 347 351
259 261 266 267 266 265 265 278 284 290 287 286 289 303 280 273 275 278 281 283 286 293 295 299 303 306 306 302 300 301 307 314 319 321 322 322 325 331 336 338 340 343 347 352
259 259 262 263 261 259 266 273 273 278 283 284 287 293 284 285 279 276 277 283 291 295 298 301 302 300 298 299 300 301 310 316 319 321 321 321 325 331 336 338 340 344 348 353
252 257 254 254 259 261 265 268 269 273 280 283 286 283 291 288 286 284 282 284 288 293 296 298 298 297 299 299 300 305 312 316 318 320 320 320 324 331 336 339 340 345 348 353
252 251 256 256 258 259 263 265 266 270 272 279 282 282 280 288 294 291 287 284 288 291 293 297 295 296 296 299 302 305 311 315 318 319 319 319 323 331 336 339 341 344 348 353
247 250 252 252 254 254 258 264 268 272 275 273 272 280 284 289 290 287 287 290 291 292 293 296 292 295 296 299 300 305 312 315 318 318 317 318 323 329 335 338 342 344 349 353
244 247 250 251 251 253 260 264 268 269 268 268 273 280 290 273 281 281 285 287 290 292 292 292 292 294 297 297 298 304 313 315 318 317 315 317 321 328 334 338 342 344 349 353
246 244 248 253 255 255 258 259 260 264 266 273 270 276 280 279 271 276 279 283 287 291 291 292 294 296 297 297 297 305 310 313 317 315 313 315 319 327 334 339 341 343 347 352
250 252 252 252 255 257 261 262 262 262 266 267 272 274 286 281 267 271 276 283 287 293 293 293 293 295 296 297 298 302 308 312 315 312 312 313 317 325 331 338 341 343 346 350
250 252 254 253 257 259 259 259 259 260 261 267 275 272 294 273 263 265 270 274 284 288 288 288 287 291 296 296 295 299 304 308 311 310 308 309 316 324 330 337 341 342 346 349
247 249 250 249 253 255 249 251 258 264 264 269 267 278 282 276 271 261 261 269 276 278 280 284 286 289 292 291 293 296 300 306 308 309 303 307 316 322 328 337 341 342 346 348
249 247 246 249 251 249 248 254 261 261 264 270 273 272 280 280 269 262 265 269 271 273 281 286 287 285 286 289 292 294 299 302 306 305 300 305 316 322 329 337 339 340 346 347
242 246 252 255 253 253 248 251 257 264 267 270 272 283 282 274 273 274 269 266 268 275 278 280 283 287 290 289 290 295 298 301 305 302 300 304 315 323 331 336 338 339 344 346
243 243 248 253 255 252 253 255 265 267 262 281 286 276 270 271 273 267 261 266 273 277 279 281 283 286 287 289 291 293 296 299 302 301 297 305 314 322 333 337 337 337 341 344
246 245 249 256 260 257 256 262 266 261 284 283 280 275 269 269 267 264 264 269 270 274 279 284 286 286 287 287 288 292 292 295 301 297 294 304 315 322 333 335 336 334 338 343
246 248 251 255 256 258 263 268 268 278 275 283 282 282 286 276 267 264 263 266 269 272 277 278 282 284 284 284 287 287 287 293 297 294 292 300 313 321 329 334 332 332 337 342
251 253 253 255 255 257 256 257 263 262 269 273 273 273 274 274 273 270 267 268 271 275 277 279 277 279 281 279 283 282 285 290 295 290 287 295 309 318 326 331 329 331 335 339
252 253 253 254 253 255 257 259 262 263 263 270 273 271 272 270 270 272 268 270 272 274 280 283 279 279 278 276 281 283 284 285 289 285 283 290 303 315 325 327 328 330 335 337
249 253 252 256 255 255 254 256 260 262 263 261 265 268 267 265 266 270 275 277 277 277 277 278 280 281 275 271 276 283 282 283 283 279 276 285 299 314 321 325 327 328 332 334
248 250 254 254 257 254 252 252 256 255 259 263 264 267 264 262 266 268 272 275 278 278 278 280 281 276 278 277 277 280 281 281 277 272 270 281 296 312 318 324 325 326 329 334